When you browse on this site, cookies collect data to enhance your experience and personalize the content and advertising you see.
Visit our Privacy Policy to learn more. By continuing to use the site, you agree to this use of cookies and data.
  • In Belgien
  • Länderverzeichnis
  • Für 7 Tage
  • Wassertemperatur
  • Satellitenkarten
  • Wetterkarte
  • Widgets
  • user-avatar
    Anmelden

    Stündliche Wetter Karlsruhe

    Heute, 19 April, Freitag

    Zeit Temperatur Niederschläge Wind Luftdruck Luftfeuchtigkeit
    00:00 +13°C° 0 mm 2 m/S 757 mmHg 74%
    01:00 +13°C° 0 mm 2 m/S 757 mmHg 75%
    02:00 +12°C° 0 mm 2 m/S 757 mmHg 76%
    03:00 +12°C° 0 mm 2 m/S 757 mmHg 78%
    04:00 +10°C° 0 mm 2 m/S 757 mmHg 79%
    05:00 +10°C° 0 mm 2 m/S 758 mmHg 78%
    06:00 +12°C° 0 mm 2 m/S 758 mmHg 77%
    07:00 +12°C° 0 mm 2 m/S 759 mmHg 76%
    08:00 +14°C° 0 mm 2 m/S 759 mmHg 70%
    09:00 +16°C° 0 mm 2 m/S 759 mmHg 63%
    10:00 +18°C° 0 mm 2 m/S 759 mmHg 57%
    11:00 +20°C° 0 mm 2 m/S 759 mmHg 53%
    12:00 +21°C° 0 mm 2 m/S 759 mmHg 49%
    13:00 +24°C° 0 mm 2 m/S 759 mmHg 45%
    14:00 +24°C° 0 mm 3 m/S 759 mmHg 45%
    15:00 +24°C° 0 mm 3 m/S 759 mmHg 44%
    16:00 +24°C° 0 mm 3 m/S 758 mmHg 44%
    17:00 +22°C° 0.1 mm 3 m/S 758 mmHg 50%
    18:00 +20°C° 0.1 mm 3 m/S 758 mmHg 56%
    19:00 +19°C° 0.1 mm 3 m/S 758 mmHg 62%
    20:00 +17°C° 0 mm 2 m/S 759 mmHg 64%
    21:00 +16°C° 0 mm 2 m/S 759 mmHg 65%
    22:00 +15°C° 0 mm 2 m/S 759 mmHg 67%
    23:00 +14°C° 0 mm 2 m/S 760 mmHg 68%

    Morgen, 20 April, Samstag

    Zeit Temperatur Niederschläge Wind Luftdruck Luftfeuchtigkeit
    00:00 +13°C° 0 mm 2 m/S 760 mmHg 68%
    01:00 +13°C° 0 mm 2 m/S 760 mmHg 69%
    02:00 +12°C° 0 mm 2 m/S 760 mmHg 71%
    03:00 +12°C° 0 mm 2 m/S 760 mmHg 72%
    04:00 +10°C° 0 mm 2 m/S 759 mmHg 73%
    05:00 +12°C° 0 mm 2 m/S 760 mmHg 74%
    06:00 +12°C° 0 mm 2 m/S 760 mmHg 75%
    07:00 +12°C° 0 mm 2 m/S 760 mmHg 75%
    08:00 +14°C° 0 mm 2 m/S 760 mmHg 70%
    09:00 +16°C° 0 mm 3 m/S 759 mmHg 64%
    10:00 +18°C° 0 mm 3 m/S 759 mmHg 58%
    11:00 +19°C° 0 mm 3 m/S 759 mmHg 55%
    12:00 +21°C° 0 mm 4 m/S 759 mmHg 51%
    13:00 +22°C° 0 mm 4 m/S 758 mmHg 47%
    14:00 +23°C° 0 mm 4 m/S 758 mmHg 45%
    15:00 +23°C° 0 mm 4 m/S 758 mmHg 43%
    16:00 +23°C° 0 mm 4 m/S 757 mmHg 41%
    17:00 +22°C° 0 mm 4 m/S 757 mmHg 45%
    18:00 +20°C° 0 mm 3 m/S 757 mmHg 50%
    19:00 +18°C° 0 mm 3 m/S 757 mmHg 54%
    20:00 +17°C° 0 mm 2 m/S 757 mmHg 56%
    21:00 +16°C° 0 mm 2 m/S 757 mmHg 59%
    22:00 +15°C° 0 mm 2 m/S 757 mmHg 61%
    23:00 +14°C° 0 mm 2 m/S 757 mmHg 63%

    übermorgen, 21 April, Sonntag

    Zeit Temperatur Niederschläge Wind Luftdruck Luftfeuchtigkeit
    00:00 +13°C° 0 mm 2 m/S 757 mmHg 65%
    01:00 +13°C° 0 mm 2 m/S 757 mmHg 67%
    02:00 +12°C° 0 mm 2 m/S 757 mmHg 69%
    03:00 +12°C° 0 mm 2 m/S 757 mmHg 71%
    04:00 +10°C° 0 mm 2 m/S 756 mmHg 72%
    05:00 +10°C° 0 mm 2 m/S 756 mmHg 71%
    06:00 +12°C° 0 mm 2 m/S 756 mmHg 70%
    07:00 +12°C° 0 mm 2 m/S 756 mmHg 69%
    08:00 +14°C° 0 mm 2 m/S 755 mmHg 62%
    09:00 +16°C° 0 mm 3 m/S 755 mmHg 54%
    10:00 +18°C° 0 mm 3 m/S 755 mmHg 47%
    11:00 +20°C° 0 mm 3 m/S 754 mmHg 44%
    12:00 +21°C° 0 mm 4 m/S 754 mmHg 40%
    13:00 +22°C° 0 mm 4 m/S 753 mmHg 37%
    14:00 +22°C° 0 mm 4 m/S 752 mmHg 37%
    15:00 +23°C° 0 mm 4 m/S 752 mmHg 38%
    16:00 +23°C° 0 mm 4 m/S 751 mmHg 38%
    17:00 +21°C° 0 mm 4 m/S 751 mmHg 44%
    18:00 +20°C° 0 mm 3 m/S 751 mmHg 49%
    19:00 +18°C° 0 mm 2 m/S 750 mmHg 55%
    20:00 +17°C° 0 mm 2 m/S 750 mmHg 58%
    21:00 +16°C° 0 mm 2 m/S 750 mmHg 60%
    22:00 +14°C° 0 mm 1 m/S 750 mmHg 63%
    23:00 +14°C° 0 mm 1 m/S 750 mmHg 65%

    22 April, Montag

    Zeit Temperatur Niederschläge Wind Luftdruck Luftfeuchtigkeit
    00:00 +13°C° 0 mm 1 m/S 750 mmHg 67%
    01:00 +12°C° 0 mm 1 m/S 749 mmHg 69%
    02:00 +12°C° 0 mm 2 m/S 749 mmHg 71%
    03:00 +10°C° 0 mm 2 m/S 749 mmHg 73%
    04:00 +10°C° 0 mm 2 m/S 748 mmHg 75%
    05:00 +10°C° 0 mm 2 m/S 748 mmHg 74%
    06:00 +12°C° 0 mm 2 m/S 748 mmHg 73%
    07:00 +12°C° 0 mm 2 m/S 747 mmHg 72%
    08:00 +13°C° 0 mm 3 m/S 747 mmHg 67%
    09:00 +16°C° 0 mm 3 m/S 746 mmHg 61%
    10:00 +18°C° 0 mm 4 m/S 745 mmHg 55%
    11:00 +19°C° 0 mm 4 m/S 745 mmHg 52%
    12:00 +21°C° 0 mm 4 m/S 744 mmHg 48%
    13:00 +22°C° 0 mm 4 m/S 744 mmHg 45%
    14:00 +22°C° 0 mm 4 m/S 743 mmHg 45%
    15:00 +23°C° 0 mm 4 m/S 742 mmHg 46%
    16:00 +23°C° 0 mm 4 m/S 742 mmHg 46%
    17:00 +21°C° 0 mm 4 m/S 741 mmHg 52%
    18:00 +20°C° 0 mm 4 m/S 741 mmHg 57%
    19:00 +19°C° 0 mm 3 m/S 740 mmHg 62%
    20:00 +18°C° 0 mm 3 m/S 740 mmHg 63%
    21:00 +17°C° 0 mm 3 m/S 740 mmHg 64%
    22:00 +16°C° 0 mm 3 m/S 740 mmHg 65%
    23:00 +14°C° 0 mm 3 m/S 740 mmHg 68%

    23 April, Dienstag

    Zeit Temperatur Niederschläge Wind Luftdruck Luftfeuchtigkeit
    00:00 +13°C° 0 mm 3 m/S 740 mmHg 70%
    01:00 +12°C° 0 mm 3 m/S 739 mmHg 73%
    02:00 +13°C° 0 mm 2 m/S 739 mmHg 75%
    03:00 +12°C° 0 mm 2 m/S 739 mmHg 77%
    04:00 +10°C° 0 mm 2 m/S 739 mmHg 79%
    05:00 +12°C° 0 mm 2 m/S 739 mmHg 78%
    06:00 +12°C° 0 mm 2 m/S 739 mmHg 78%
    07:00 +12°C° 0 mm 2 m/S 739 mmHg 78%
    08:00 +14°C° 0 mm 2 m/S 739 mmHg 72%
    09:00 +16°C° 0 mm 1 m/S 739 mmHg 66%
    10:00 +20°C° 0 mm 1 m/S 739 mmHg 60%
    11:00 +21°C° 0 mm 1 m/S 739 mmHg 56%
    12:00 +22°C° 0 mm 1 m/S 738 mmHg 53%
    13:00 +24°C° 0 mm 1 m/S 738 mmHg 49%
    14:00 +24°C° 0 mm 1 m/S 738 mmHg 49%
    15:00 +24°C° 0 mm 1 m/S 738 mmHg 48%
    16:00 +25°C° 0 mm 1 m/S 738 mmHg 48%
    17:00 +23°C° 0.1 mm 1 m/S 738 mmHg 54%
    18:00 +20°C° 0.1 mm 0 m/S 739 mmHg 59%
    19:00 +18°C° 0.1 mm 0 m/S 739 mmHg 65%
    20:00 +18°C° 0.1 mm 0 m/S 740 mmHg 67%
    21:00 +17°C° 0.1 mm 0 m/S 740 mmHg 69%
    22:00 +18°C° 0.1 mm 1 m/S 741 mmHg 71%
    23:00 +16°C° 0 mm 1 m/S 741 mmHg 74%

    24 April, Mittwoch

    Zeit Temperatur Niederschläge Wind Luftdruck Luftfeuchtigkeit
    00:00 +16°C° 0 mm 1 m/S 742 mmHg 77%
    01:00 +15°C° 0 mm 2 m/S 742 mmHg 79%
    02:00 +15°C° 0 mm 2 m/S 743 mmHg 81%
    03:00 +15°C° 0 mm 2 m/S 743 mmHg 83%
    04:00 +14°C° 0 mm 2 m/S 744 mmHg 85%
    05:00 +15°C° 0 mm 1 m/S 744 mmHg 82%
    06:00 +15°C° 0 mm 1 m/S 744 mmHg 79%
    07:00 +16°C° 0 mm 1 m/S 745 mmHg 77%
    08:00 +18°C° 0 mm 1 m/S 745 mmHg 72%
    09:00 +20°C° 0 mm 1 m/S 745 mmHg 67%
    10:00 +21°C° 0 mm 1 m/S 746 mmHg 62%
    11:00 +22°C° 0 mm 1 m/S 745 mmHg 57%
    12:00 +24°C° 0 mm 2 m/S 745 mmHg 53%
    13:00 +25°C° 0 mm 2 m/S 745 mmHg 48%
    14:00 +25°C° 0 mm 2 m/S 745 mmHg 48%
    15:00 +25°C° 0 mm 2 m/S 745 mmHg 49%
    16:00 +25°C° 0 mm 3 m/S 745 mmHg 49%
    17:00 +24°C° 0 mm 3 m/S 745 mmHg 54%
    18:00 +22°C° 0 mm 3 m/S 745 mmHg 59%
    19:00 +21°C° 0 mm 3 m/S 745 mmHg 64%
    20:00 +21°C° 0 mm 2 m/S 745 mmHg 66%
    21:00 +20°C° 0 mm 2 m/S 745 mmHg 68%
    22:00 +19°C° 0 mm 2 m/S 745 mmHg 70%
    23:00 +18°C° 0 mm 2 m/S 745 mmHg 73%
    Mehr zeigen